This is the latest recevied weather packets stored in our database for station/object W8DRH-13. If no packets are shown the sender has not sent any weather packets the latest 10 day(s).
| Time | Temp. | Humidity | Pressure | Rain* | Wind** | Luminosity | Snow |
|---|---|---|---|---|---|---|---|
| 1777299339 | 15° C | 77% | 1016.2 hPa | 0 mm | - | 532 W/m² | - |
| 1777299036 | 14.44° C | 77% | 1016.4 hPa | 0 mm | - | 519 W/m² | - |
| 1777298733 | 14.44° C | 77% | 1016.3 hPa | 0 mm | - | 343 W/m² | - |
| 1777298430 | 14.44° C | 78% | 1016.3 hPa | 0 mm | - | 425 W/m² | - |
| 1777297821 | 13.89° C | 77% | 1016.1 hPa | 0 mm | - | 461 W/m² | - |
| 1777297216 | 13.89° C | 78% | 1016.2 hPa | 0 mm | - | 98 W/m² | - |
| 1777296914 | 13.89° C | 78% | 1016.1 hPa | 0 mm | - | 361 W/m² | - |
| 1777295673 | 12.22° C | 80% | 1016.2 hPa | 0 mm | - | 269 W/m² | - |
| 1777295371 | 12.22° C | 80% | 1016.5 hPa | 0 mm | - | 258 W/m² | - |
| 1777294765 | 11.67° C | 80% | 1016.3 hPa | 0 mm | - | 78 W/m² | - |
| 1777294158 | 11.67° C | 80% | 1016.2 hPa | 0 mm | - | 94 W/m² | - |
| 1777293550 | 11.11° C | 82% | 1016.4 hPa | 0 mm | - | 182 W/m² | - |
| 1777293245 | 10.56° C | 82% | 1016.2 hPa | 0 mm | - | 67 W/m² | - |
| 1777292944 | 10.56° C | 84% | 1016.2 hPa | 0 mm | - | 59 W/m² | - |
| 1777292640 | 10° C | 84% | 1016.2 hPa | 0 mm | - | 53 W/m² | - |
| 1777292336 | 10° C | 85% | 1016.2 hPa | 0 mm | - | 50 W/m² | - |
| 1777291729 | 9.44° C | 86% | 1016.1 hPa | 0 mm | - | 46 W/m² | - |
| 1777290517 | 9.44° C | 87% | 1016.3 hPa | 0 mm | - | 42 W/m² | - |
| 1777290213 | 9.44° C | 87% | 1016.4 hPa | 0 mm | - | 42 W/m² | - |
| 1777289909 | 8.89° C | 87% | 1016.2 hPa | 0 mm | - | 40 W/m² | - |
| 1777289606 | 8.89° C | 88% | 1016.2 hPa | 0 mm | - | 39 W/m² | - |
| 1777289301 | 8.89° C | 88% | 1016.2 hPa | 0 mm | - | 37 W/m² | - |
| 1777288998 | 8.89° C | 88% | 1016.3 hPa | 0 mm | - | 35 W/m² | - |
| 1777288695 | 8.89° C | 88% | 1016.3 hPa | 0 mm | - | 32 W/m² | - |
| 1777288392 | 8.89° C | 88% | 1016.2 hPa | 0 mm | - | 27 W/m² | - |
* Rain latest hour (hover to see other rain measurements)
** Current wind speed in m/s (hover to see current wind gust speed)